Wind_Speed
7 7 7 7 7 7 7 7 7 7 7 7 6 7 7 7 8 8 8 8 8 8 8 8 8 7 7 7 6 6 6 6 6 6 6 6 6 6 6 7 8 8 9
7 7 7 6 6 6 6 6 6 6 6 5 5 5 5 6 6 6 7 6 6 6 6 6 6 6 6 5 5 5 4 4 4 5 5 5 6 6 6 6 7 8 9
8 7 7 6 6 5 5 6 6 6 5 5 5 5 5 5 5 5 6 6 6 5 5 5 5 5 4 4 4 3 3 2 3 3 4 4 5 5 6 6 7 8 9
8 8 8 7 6 6 6 6 6 6 6 6 6 6 6 6 6 6 6 6 6 6 5 5 4 4 4 3 3 2 1 1 2 2 3 3 4 5 5 6 7 8 8
9 9 9 8 7 7 7 7 6 6 6 7 7 8 8 8 8 8 8 8 7 7 6 5 5 4 4 4 3 2 1 2 2 2 3 3 4 5 5 6 6 7 8
11 11 10 9 8 8 8 7 7 7 7 8 8 8 9 9 9 9 9 9 8 8 8 8 7 6 6 5 5 4 4 4 4 4 4 4 5 5 6 6 6 7 7
12 12 12 11 10 9 8 8 8 9 9 9 9 9 9 10 10 10 10 10 10 10 10 10 9 9 9 8 7 7 6 6 6 6 6 6 6 6 6 7 7 7 7
13 14 15 13 12 11 10 9 9 9 9 9 10 10 10 11 11 12 12 12 12 12 13 13 12 12 12 11 10 9 9 9 8 8 8 8 8 8 8 8 8 8 8
16 16 16 14 14 13 12 12 11 10 10 10 11 11 12 12 13 13 14 14 14 15 15 15 15 15 15 15 14 12 12 12 11 10 10 10 10 10 10 9 9 9 9
18 18 18 16 15 15 15 14 14 13 12 12 12 13 13 14 15 15 16 16 17 17 17 18 18 18 17 17 17 16 15 14 14 13 13 12 12 12 12 12 11 11 11
21 20 19 18 17 18 17 17 16 16 15 15 15 16 16 17 17 18 18 19 19 19 19 19 20 20 20 20 19 18 18 17 16 16 15 15 14 14 14 14 14 13 13
22 21 20 20 20 20 20 20 19 18 18 18 18 19 19 20 20 20 20 21 21 22 21 21 21 21 22 22 21 19 19 20 20 19 18 17 17 16 16 16 16 16 16
22 21 22 22 22 23 22 21 22 22 21 21 21 22 22 22 22 22 22 23 23 23 23 23 23 23 24 23 23 21 20 20 22 22 21 20 20 19 19 18 18 19 18
21 22 22 23 24 24 24 24 24 25 24 23 24 24 23 23 24 24 25 25 25 25 26 26 26 25 25 25 24 23 22 22 23 24 24 24 23 22 21 21 21 21 21
21 21 22 22 23 23 24 24 23 24 23 23 23 24 24 25 26 25 26 26 27 27 28 28 28 27 27 27 27 26 25 23 24 26 27 26 25 24 24 24 23 23 23
21 21 22 22 22 23 21 22 22 22 23 24 24 24 25 25 26 27 28 28 28 29 28 28 28 28 29 28 28 28 27 26 25 26 28 28 28 27 26 26 26 25 26
19 20 21 19 19 19 20 22 23 23 24 24 24 25 26 27 28 29 29 28 29 29 29 29 28 29 29 28 29 29 29 28 27 27 28 29 29 29 28 27 27 28 28
19 19 18 18 17 18 20 21 22 24 24 24 26 27 27 28 28 29 30 30 29 28 28 29 28 29 29 29 29 28 28 27 27 27 29 30 30 30 31 30 29 30 29
18 17 17 17 18 19 21 22 23 23 24 25 27 28 29 30 30 31 31 31 31 31 30 30 29 29 29 29 28 28 27 27 27 27 29 31 32 32 32 32 31 31 31
15 16 16 18 19 21 22 23 24 25 26 27 28 29 30 31 32 32 33 33 33 33 32 32 32 30 30 29 29 28 28 29 29 28 29 30 32 33 33 33 33 32 32
15 16 17 18 20 22 23 25 26 27 28 29 30 31 32 33 33 33 33 34 34 34 33 33 32 31 31 30 30 29 29 29 30 31 30 30 31 33 35 34 34 34 34
15 16 17 19 21 23 24 26 28 29 30 31 32 32 33 33 33 34 34 34 34 34 34 34 33 33 32 33 32 31 31 31 31 31 31 31 31 33 35 35 35 35 35
15 17 18 20 22 24 26 27 29 30 31 32 33 33 34 34 34 35 35 35 35 35 35 35 35 35 34 35 34 33 32 32 32 32 32 33 33 33 34 36 37 37 37
16 17 19 21 23 25 27 29 30 31 32 33 34 34 35 35 35 36 36 36 36 36 37 37 37 36 36 36 36 35 34 33 34 33 33 34 35 34 34 35 36 37 38
17 19 20 22 24 26 28 30 31 32 33 34 34 35 35 36 36 36 36 37 37 37 37 38 38 38 37 37 37 37 36 36 36 35 34 34 36 36 35 35 36 36 38
17 19 21 23 25 27 29 30 31 32 33 33 34 34 35 35 36 36 36 36 36 36 36 36 36 37 37 37 38 39 38 38 37 37 35 35 36 37 37 36 36 36 38
Wind_Direction
0 2 359 359 2 7 13 19 26 32 35 38 37 35 33 31 29 28 29 31 33 32 31 31 32 36 41 48 58 67 72 78 85 91 96 98 100 106 112 120 123 125 126
353 350 349 350 355 359 2 4 8 12 15 18 18 16 16 15 13 12 12 12 15 19 21 19 21 24 28 35 47 60 71 81 90 94 100 106 108 112 118 127 131 133 132
345 340 338 341 344 345 346 346 346 349 350 351 351 350 350 350 348 346 347 346 347 352 359 2 6 8 10 14 28 47 67 85 99 103 110 119 124 126 127 136 141 141 142
331 324 325 328 326 327 327 327 329 331 331 329 329 327 326 324 320 321 323 324 325 327 329 335 341 343 343 343 350 12 50 115 132 137 139 140 143 145 144 146 149 150 149
319 310 310 311 312 313 314 312 313 316 318 318 318 315 313 311 309 310 311 310 311 312 310 308 310 311 307 304 304 296 266 217 197 186 177 172 168 165 161 158 158 157 156
313 305 302 300 300 300 300 299 300 302 306 308 310 309 308 308 308 306 305 303 301 300 299 296 291 286 284 281 275 270 255 237 224 215 205 198 190 184 177 171 169 167 165
306 300 300 298 295 294 293 291 292 294 297 300 302 303 305 304 304 304 302 299 296 295 292 289 285 280 276 272 269 259 251 240 231 226 221 215 206 201 194 185 182 180 177
301 295 297 293 289 286 283 286 288 290 292 295 297 298 301 301 301 302 300 297 295 293 291 287 283 278 275 270 266 260 251 243 234 229 226 222 216 211 206 199 195 193 190
301 295 289 285 282 279 276 278 280 284 288 292 294 293 295 296 296 297 296 294 293 293 291 287 282 280 276 270 265 262 255 246 239 234 230 227 222 215 210 208 205 202 201
303 297 286 281 273 271 270 271 273 277 279 283 286 287 290 292 294 293 292 292 290 290 290 286 283 278 274 269 265 260 256 249 242 239 235 230 225 221 215 213 212 208 206
301 295 283 276 269 265 264 266 268 271 273 275 278 281 284 286 289 290 289 288 287 287 287 286 283 280 273 269 264 259 255 250 243 241 238 233 228 225 221 219 217 214 211
298 291 282 273 266 264 264 264 263 266 267 269 272 276 279 280 282 285 287 284 284 284 283 282 282 278 274 270 265 261 256 251 246 243 241 237 232 227 225 223 220 218 216
295 287 280 273 266 263 262 262 261 262 264 266 269 272 273 275 278 282 283 282 281 281 281 281 280 278 275 271 267 264 260 255 246 243 242 240 237 231 227 225 223 221 219
292 289 282 275 271 264 262 262 262 262 263 264 265 269 274 275 277 280 281 282 282 282 282 282 280 277 275 273 269 267 263 258 251 243 241 240 239 235 230 227 225 224 222
286 287 282 276 276 270 266 266 266 264 265 268 268 272 277 279 278 279 283 281 282 283 280 279 281 277 276 273 272 270 268 265 257 246 241 240 239 238 235 230 227 225 223
285 285 283 275 276 275 273 272 274 277 276 275 276 278 280 281 281 283 283 283 282 283 281 280 280 276 274 273 271 269 268 265 260 250 242 239 238 237 238 234 230 228 225
289 287 286 285 281 278 279 280 278 281 281 282 281 281 281 281 283 285 286 283 283 283 281 280 280 275 272 272 270 268 265 262 257 253 245 239 237 236 236 236 233 229 227
293 293 290 290 287 287 289 289 287 286 284 282 281 282 282 281 282 284 285 284 285 284 281 279 277 274 271 270 271 269 263 260 257 253 248 241 238 237 235 235 235 232 229
295 295 294 293 293 294 295 296 294 291 287 285 284 284 283 282 283 283 284 283 283 282 280 277 275 274 270 269 269 266 262 259 256 253 249 243 239 237 235 233 234 232 230
296 297 296 296 297 297 298 299 298 297 293 290 289 287 285 284 284 284 284 283 281 280 279 277 275 272 269 267 266 262 259 256 253 253 250 245 241 238 234 233 234 232 230
294 297 299 301 301 302 301 301 301 300 299 296 295 291 288 287 286 285 283 283 281 280 278 276 273 270 267 265 263 261 258 256 254 252 249 246 243 239 235 233 233 233 231
300 303 305 305 304 303 303 304 303 302 301 300 298 295 292 290 287 286 285 283 281 279 277 274 272 269 267 264 262 260 257 255 254 251 248 246 244 240 235 233 233 232 230
304 306 308 309 308 308 307 306 305 303 302 301 299 297 295 293 290 288 286 284 281 279 277 274 272 270 268 264 262 261 257 254 253 251 247 245 242 240 237 234 232 230 229
306 309 310 311 312 312 310 309 307 305 303 301 299 297 295 293 291 288 286 284 281 278 276 274 272 270 268 264 262 260 257 255 252 249 247 245 241 238 236 234 232 230 227
309 311 312 312 312 311 310 309 307 305 304 302 300 298 296 294 292 290 288 285 282 280 277 274 271 269 266 263 260 259 257 254 252 248 246 244 240 237 234 233 230 228 224
310 311 311 311 311 311 311 310 309 307 305 303 301 298 297 295 293 291 289 286 283 280 277 274 271 268 266 262 259 257 255 253 251 248 245 242 239 236 233 232 228 224 223
Height
5903 5902 5902 5901 5900 5899 5898 5898 5897 5897 5897 5897 5897 5897 5897 5896 5896 5896 5896 5896 5896 5895 5895 5895 5895 5895 5894 5894 5894 5894 5894 5894 5894 5894 5894 5894 5894 5894 5894 5895 5895 5895 5895
5903 5902 5901 5901 5900 5899 5898 5898 5897 5897 5897 5897 5897 5897 5897 5896 5896 5896 5896 5896 5895 5895 5895 5895 5895 5895 5894 5894 5894 5894 5894 5895 5895 5895 5895 5895 5895 5895 5896 5896 5896 5896 5897
5902 5901 5901 5900 5899 5898 5898 5897 5897 5896 5896 5896 5896 5896 5896 5896 5896 5896 5895 5895 5895 5895 5895 5894 5894 5894 5894 5894 5894 5894 5894 5895 5895 5895 5896 5896 5896 5896 5897 5897 5897 5898 5898
5902 5901 5900 5899 5898 5897 5897 5896 5896 5895 5895 5895 5895 5895 5895 5895 5895 5895 5894 5894 5894 5894 5894 5894 5893 5893 5893 5894 5894 5894 5894 5894 5895 5895 5896 5896 5896 5897 5897 5898 5898 5898 5899
5901 5900 5899 5898 5897 5896 5895 5895 5894 5894 5894 5894 5894 5894 5894 5893 5893 5893 5893 5893 5893 5893 5893 5892 5892 5892 5892 5893 5893 5893 5893 5894 5894 5895 5895 5896 5896 5897 5898 5898 5899 5899 5900
5900 5899 5897 5896 5895 5895 5894 5893 5893 5893 5892 5892 5892 5892 5892 5892 5891 5891 5891 5891 5891 5891 5891 5891 5891 5891 5891 5891 5891 5892 5892 5893 5893 5894 5895 5895 5896 5897 5897 5898 5899 5899 5900
5898 5897 5896 5895 5894 5893 5893 5892 5892 5891 5891 5891 5890 5890 5890 5890 5889 5889 5889 5889 5889 5889 5889 5889 5889 5889 5889 5889 5889 5890 5890 5891 5892 5892 5893 5894 5895 5896 5897 5897 5898 5899 5900
5896 5895 5894 5893 5892 5891 5891 5890 5890 5890 5889 5889 5888 5888 5888 5888 5888 5887 5887 5886 5886 5886 5886 5886 5886 5887 5887 5887 5887 5887 5888 5889 5890 5890 5891 5892 5893 5894 5895 5896 5898 5899 5900
5893 5893 5892 5891 5890 5889 5888 5888 5888 5887 5887 5887 5886 5886 5886 5885 5885 5885 5884 5884 5883 5883 5882 5882 5883 5883 5883 5884 5884 5884 5885 5885 5887 5888 5889 5890 5891 5892 5894 5895 5896 5898 5899
5891 5890 5888 5887 5887 5886 5886 5885 5885 5884 5884 5884 5883 5883 5883 5882 5882 5882 5881 5881 5880 5880 5879 5879 5879 5879 5879 5880 5880 5881 5881 5882 5883 5885 5886 5887 5889 5890 5891 5893 5894 5896 5897
5887 5886 5885 5884 5883 5882 5882 5882 5881 5881 5880 5880 5880 5879 5879 5879 5878 5878 5877 5877 5876 5875 5875 5874 5874 5874 5874 5875 5876 5877 5878 5878 5879 5880 5882 5884 5886 5887 5889 5890 5892 5894 5896
5883 5882 5881 5880 5879 5878 5878 5877 5877 5877 5876 5876 5875 5875 5874 5874 5874 5873 5873 5872 5872 5871 5870 5870 5869 5869 5869 5870 5870 5872 5873 5874 5875 5876 5878 5880 5882 5884 5886 5887 5889 5891 5893
5878 5877 5876 5875 5874 5873 5873 5872 5872 5871 5870 5870 5870 5870 5869 5869 5868 5868 5867 5867 5866 5866 5865 5865 5864 5864 5864 5864 5865 5866 5867 5869 5871 5872 5874 5876 5878 5880 5881 5884 5886 5888 5890
5873 5872 5870 5869 5869 5868 5868 5868 5866 5865 5865 5864 5864 5863 5862 5862 5862 5862 5862 5861 5861 5860 5860 5859 5859 5858 5858 5859 5859 5860 5861 5863 5865 5867 5869 5871 5873 5875 5877 5879 5882 5884 5886
5867 5866 5864 5863 5863 5863 5862 5861 5859 5859 5859 5858 5857 5857 5857 5857 5856 5856 5855 5855 5855 5854 5853 5853 5852 5852 5852 5853 5853 5854 5855 5857 5858 5861 5863 5865 5868 5870 5872 5875 5877 5879 5882
5862 5860 5859 5858 5858 5857 5856 5856 5855 5854 5853 5852 5851 5851 5851 5851 5851 5850 5849 5848 5848 5847 5846 5846 5846 5846 5846 5846 5846 5847 5848 5850 5852 5853 5856 5859 5862 5864 5867 5869 5872 5875 5877
5858 5856 5855 5854 5854 5853 5852 5852 5850 5849 5848 5847 5846 5846 5846 5845 5844 5844 5842 5842 5841 5840 5840 5839 5839 5839 5839 5839 5839 5840 5841 5842 5844 5846 5849 5852 5855 5858 5861 5864 5866 5869 5872
5854 5852 5851 5850 5850 5849 5848 5847 5845 5844 5843 5842 5841 5841 5840 5839 5838 5837 5836 5835 5834 5832 5832 5832 5832 5832 5832 5832 5832 5833 5834 5836 5837 5839 5841 5844 5847 5851 5854 5857 5860 5863 5866
5850 5848 5848 5847 5845 5844 5843 5842 5840 5838 5837 5836 5835 5834 5833 5832 5831 5830 5829 5828 5827 5826 5825 5825 5825 5825 5825 5825 5825 5826 5827 5828 5830 5832 5834 5837 5840 5843 5846 5850 5853 5856 5859
5846 5845 5844 5843 5842 5840 5838 5836 5835 5833 5831 5830 5828 5827 5826 5825 5823 5822 5821 5820 5819 5818 5817 5817 5817 5817 5817 5817 5818 5818 5820 5821 5823 5825 5827 5829 5832 5835 5838 5842 5846 5849 5853
5842 5841 5840 5839 5837 5835 5833 5831 5829 5827 5825 5823 5821 5819 5818 5817 5815 5814 5812 5811 5810 5809 5808 5808 5808 5808 5809 5809 5810 5811 5812 5813 5815 5817 5819 5821 5824 5827 5830 5834 5838 5842 5846
5839 5837 5836 5835 5833 5831 5829 5826 5824 5821 5819 5816 5814 5812 5810 5808 5806 5805 5804 5803 5801 5800 5799 5799 5799 5799 5800 5800 5801 5802 5804 5806 5807 5809 5811 5813 5816 5819 5822 5826 5830 5834 5838
5836 5834 5833 5831 5828 5826 5823 5820 5817 5814 5812 5809 5806 5804 5801 5799 5797 5796 5794 5793 5792 5790 5790 5789 5789 5789 5790 5791 5791 5793 5794 5797 5799 5801 5803 5805 5808 5811 5814 5817 5821 5826 5830
5832 5831 5829 5826 5824 5821 5818 5814 5811 5808 5805 5802 5799 5796 5793 5791 5788 5786 5784 5783 5782 5780 5779 5779 5779 5779 5780 5781 5782 5783 5785 5787 5789 5792 5794 5796 5799 5802 5806 5809 5813 5817 5822
5829 5827 5825 5822 5819 5816 5813 5809 5805 5801 5797 5794 5791 5788 5785 5782 5779 5777 5775 5773 5771 5770 5769 5768 5768 5768 5769 5771 5771 5773 5774 5776 5779 5782 5785 5787 5790 5793 5797 5800 5804 5809 5813
5826 5824 5821 5818 5815 5812 5807 5803 5799 5794 5790 5786 5783 5779 5776 5773 5770 5767 5764 5762 5760 5759 5758 5757 5757 5757 5758 5759 5761 5762 5764 5766 5768 5772 5775 5778 5781 5784 5788 5792 5796 5801 5805